Time,TemperatureF,DewpointF,PressureIn,WindDirection,WindDirectionDegrees,WindSpeedMPH,WindSpeedGustMPH,Humidity,HourlyPrecipIn,Conditions,Clouds,dailyrainin,SolarRadiationWatts/m^2,SoftwareType,DateUTC
2013-01-10 00:14:00,43.5,38.0,30.10,NNE,12,3.0,7.0,80,0.00,,,0.03,0,weatherlink.com 1.10,2013-01-10 08:14:00,
2013-01-10 00:29:00,43.4,38.0,30.10,North,9,3.0,8.0,80,0.00,,,0.03,0,weatherlink.com 1.10,2013-01-10 08:29:00,
2013-01-10 00:44:00,43.3,38.0,30.10,WNW,292,4.0,8.0,80,0.00,,,0.03,0,weatherlink.com 1.10,2013-01-10 08:44:00,
2013-01-10 00:59:00,43.3,38.0,30.10,NNE,13,5.0,8.0,81,0.00,,,0.00,0,weatherlink.com 1.10,2013-01-10 08:59:00,
2013-01-10 01:14:00,43.2,38.0,30.10,North,5,8.0,9.0,82,0.00,,,0.00,0,weatherlink.com 1.10,2013-01-10 09:14:00,
2013-01-10 01:29:00,43.5,38.0,30.10,NW,304,6.0,6.0,82,0.00,,,0.00,0,weatherlink.com 1.10,2013-01-10 09:29:00,
2013-01-10 01:44:00,43.3,38.0,30.10,NW,315,5.0,7.0,82,0.00,,,0.00,0,weatherlink.com 1.10,2013-01-10 09:44:00,
2013-01-10 02:00:00,43.1,38.0,30.11,NW,317,1.0,6.0,82,0.00,,,0.00,0,weatherlink.com 1.10,2013-01-10 10:00:00,
2013-01-10 02:15:00,42.8,37.0,30.10,North,5,5.0,8.0,81,0.00,,,0.00,0,weatherlink.com 1.10,2013-01-10 10:15:00,
2013-01-10 02:30:00,43.5,38.0,30.11,North,355,3.0,8.0,82,0.00,,,0.00,0,weatherlink.com 1.10,2013-01-10 10:30:00,
2013-01-10 02:45:00,44.0,39.0,30.11,North,5,5.0,7.0,83,0.00,,,0.00,0,weatherlink.com 1.10,2013-01-10 10:45:00,
2013-01-10 03:00:00,44.3,40.0,30.11,NNW,340,5.0,9.0,84,0.00,,,0.00,0,weatherlink.com 1.10,2013-01-10 11:00:00,
2013-01-10 03:15:00,44.4,40.0,30.11,NNW,345,2.0,9.0,85,0.00,,,0.00,0,weatherlink.com 1.10,2013-01-10 11:15:00,
2013-01-10 03:30:00,44.3,39.0,30.11,NW,309,2.0,9.0,83,0.00,,,0.00,0,weatherlink.com 1.10,2013-01-10 11:30:00,
2013-01-10 03:45:00,44.4,40.0,30.11,NNE,22,7.0,8.0,83,0.00,,,0.00,0,weatherlink.com 1.10,2013-01-10 11:45:00,
2013-01-10 04:01:00,44.5,40.0,30.10,North,355,6.0,7.0,83,0.00,,,0.00,0,weatherlink.com 1.10,2013-01-10 12:01:00,
2013-01-10 04:15:00,44.3,40.0,30.10,NNW,329,5.0,9.0,84,0.00,,,0.00,0,weatherlink.com 1.10,2013-01-10 12:15:00,
2013-01-10 04:32:00,43.7,39.0,30.10,North,360,5.0,9.0,84,0.00,,,0.00,0,weatherlink.com 1.10,2013-01-10 12:32:00,
2013-01-10 04:47:00,43.2,39.0,30.10,NW,320,5.0,9.0,84,0.00,,,0.00,0,weatherlink.com 1.10,2013-01-10 12:47:00,
2013-01-10 05:01:00,43.0,39.0,30.11,NW,320,4.0,8.0,85,0.00,,,0.00,0,weatherlink.com 1.10,2013-01-10 13:01:00,
2013-01-10 05:17:00,42.5,38.0,30.10,North,10,6.0,9.0,85,0.00,,,0.00,0,weatherlink.com 1.10,2013-01-10 13:17:00,
2013-01-10 05:32:00,42.4,38.0,30.11,NNE,25,8.0,10.0,85,0.00,,,0.00,0,weatherlink.com 1.10,2013-01-10 13:32:00,
2013-01-10 05:46:00,42.1,38.0,30.11,North,10,5.0,8.0,85,0.00,,,0.00,0,weatherlink.com 1.10,2013-01-10 13:46:00,
2013-01-10 06:02:00,42.1,38.0,30.12,NNW,333,4.0,5.0,85,0.00,,,0.00,0,weatherlink.com 1.10,2013-01-10 14:02:00,
2013-01-10 06:17:00,41.6,37.0,30.12,North,355,7.0,9.0,84,0.00,,,0.00,0,weatherlink.com 1.10,2013-01-10 14:17:00,
2013-01-10 06:32:00,41.1,37.0,30.12,NNE,24,4.0,8.0,85,0.00,,,0.00,0,weatherlink.com 1.10,2013-01-10 14:32:00,
2013-01-10 06:48:00,40.8,37.0,30.12,NNE,19,5.0,6.0,86,0.00,,,0.00,0,weatherlink.com 1.10,2013-01-10 14:48:00,
2013-01-10 07:03:00,41.2,36.0,30.12,North,11,5.0,7.0,83,0.00,,,0.00,0,weatherlink.com 1.10,2013-01-10 15:03:00,
2013-01-10 07:18:00,40.9,36.0,30.12,North,11,6.0,8.0,83,0.00,,,0.00,0,weatherlink.com 1.10,2013-01-10 15:18:00,
2013-01-10 07:33:00,40.6,36.0,30.13,North,360,0.0,6.0,84,0.00,,,0.00,7,weatherlink.com 1.10,2013-01-10 15:33:00,
2013-01-10 07:48:00,40.5,36.0,30.14,North,11,5.0,7.0,84,0.00,,,0.00,16,weatherlink.com 1.10,2013-01-10 15:48:00,
2013-01-10 08:03:00,41.3,37.0,30.14,NNE,17,5.0,9.0,83,0.00,,,0.00,23,weatherlink.com 1.10,2013-01-10 16:03:00,
2013-01-10 08:18:00,41.6,37.0,30.15,NE,40,4.0,9.0,83,0.00,,,0.00,26,weatherlink.com 1.10,2013-01-10 16:18:00,
2013-01-10 08:33:00,42.4,38.0,30.15,North,5,5.0,10.0,83,0.00,,,0.00,134,weatherlink.com 1.10,2013-01-10 16:33:00,
2013-01-10 08:49:00,44.9,39.0,30.15,NW,316,4.0,8.0,80,0.00,,,0.00,188,weatherlink.com 1.10,2013-01-10 16:49:00,
2013-01-10 09:04:00,45.9,39.0,30.15,NW,308,6.0,8.0,77,0.00,,,0.00,239,weatherlink.com 1.10,2013-01-10 17:04:00,
2013-01-10 09:18:00,46.3,39.0,30.15,North,360,2.0,13.0,76,0.00,,,0.00,279,weatherlink.com 1.10,2013-01-10 17:18:00,
2013-01-10 09:34:00,46.8,40.0,30.15,WNW,300,5.0,18.0,76,0.00,,,0.00,320,weatherlink.com 1.10,2013-01-10 17:34:00,
2013-01-10 09:48:00,47.6,40.0,30.15,NW,315,6.0,11.0,76,0.00,,,0.00,350,weatherlink.com 1.10,2013-01-10 17:48:00,
2013-01-10 10:04:00,48.2,40.0,30.15,WNW,288,5.0,11.0,72,0.00,,,0.00,387,weatherlink.com 1.10,2013-01-10 18:04:00,
2013-01-10 10:18:00,48.7,40.0,30.14,North,355,4.0,13.0,71,0.00,,,0.00,415,weatherlink.com 1.10,2013-01-10 18:18:00,
2013-01-10 10:35:00,49.1,40.0,30.14,NW,307,8.0,18.0,70,0.00,,,0.00,443,weatherlink.com 1.10,2013-01-10 18:35:00,
2013-01-10 10:50:00,49.9,40.0,30.14,WNW,288,10.0,15.0,70,0.00,,,0.00,468,weatherlink.com 1.10,2013-01-10 18:50:00,
2013-01-10 11:05:00,50.2,40.0,30.14,WNW,298,12.0,19.0,68,0.00,,,0.00,548,weatherlink.com 1.10,2013-01-10 19:05:00,
2013-01-10 11:20:00,49.2,40.0,30.13,WNW,290,12.0,23.0,71,0.00,,,0.00,517,weatherlink.com 1.10,2013-01-10 19:20:00,
2013-01-10 11:34:00,49.8,41.0,30.12,NW,308,9.0,20.0,71,0.00,,,0.00,517,weatherlink.com 1.10,2013-01-10 19:34:00,
2013-01-10 11:50:00,50.5,42.0,30.12,NW,306,11.0,16.0,72,0.00,,,0.00,519,weatherlink.com 1.10,2013-01-10 19:50:00,
2013-01-10 12:05:00,50.8,41.0,30.11,NW,306,16.0,18.0,69,0.00,,,0.00,526,weatherlink.com 1.10,2013-01-10 20:05:00,
2013-01-10 12:21:00,50.3,42.0,30.11,WNW,296,11.0,20.0,72,0.00,,,0.00,531,weatherlink.com 1.10,2013-01-10 20:21:00,
2013-01-10 12:36:00,50.8,42.0,30.10,West,273,9.0,20.0,71,0.00,,,0.00,526,weatherlink.com 1.10,2013-01-10 20:36:00,
2013-01-10 12:51:00,51.2,42.0,30.10,NW,318,9.0,21.0,71,0.00,,,0.00,534,weatherlink.com 1.10,2013-01-10 20:51:00,
2013-01-10 13:06:00,50.9,42.0,30.10,WNW,292,15.0,21.0,72,0.00,,,0.00,510,weatherlink.com 1.10,2013-01-10 21:06:00,
2013-01-10 13:20:00,50.7,42.0,30.09,NW,315,8.0,21.0,72,0.00,,,0.00,494,weatherlink.com 1.10,2013-01-10 21:20:00,
2013-01-10 13:36:00,51.1,42.0,30.09,NW,318,12.0,19.0,72,0.00,,,0.00,478,weatherlink.com 1.10,2013-01-10 21:36:00,
2013-01-10 13:51:00,51.5,41.0,30.10,West,269,9.0,23.0,68,0.00,,,0.00,455,weatherlink.com 1.10,2013-01-10 21:51:00,
2013-01-10 14:06:00,51.8,43.0,30.10,NNW,329,12.0,29.0,71,0.00,,,0.00,434,weatherlink.com 1.10,2013-01-10 22:06:00,
2013-01-10 14:21:00,51.9,42.0,30.09,West,273,9.0,25.0,68,0.00,,,0.00,406,weatherlink.com 1.10,2013-01-10 22:21:00,
2013-01-10 14:37:00,51.3,42.0,30.10,WNW,298,15.0,24.0,71,0.00,,,0.00,373,weatherlink.com 1.10,2013-01-10 22:37:00,
2013-01-10 14:52:00,50.9,43.0,30.10,North,351,8.0,26.0,73,0.00,,,0.00,343,weatherlink.com 1.10,2013-01-10 22:52:00,
2013-01-10 15:07:00,51.3,43.0,30.11,WNW,287,15.0,23.0,74,0.00,,,0.00,304,weatherlink.com 1.10,2013-01-10 23:07:00,
2013-01-10 15:22:00,50.9,43.0,30.10,WNW,282,20.0,22.0,74,0.00,,,0.00,260,weatherlink.com 1.10,2013-01-10 23:22:00,
2013-01-10 15:37:00,50.6,43.0,30.11,North,351,8.0,24.0,74,0.00,,,0.00,209,weatherlink.com 1.10,2013-01-10 23:37:00,
2013-01-10 15:52:00,50.5,43.0,30.12,NW,320,9.0,28.0,75,0.00,,,0.00,165,weatherlink.com 1.10,2013-01-10 23:52:00,
2013-01-10 16:07:00,50.3,43.0,30.12,WNW,290,11.0,24.0,75,0.00,,,0.00,109,weatherlink.com 1.10,2013-01-11 00:07:00,
2013-01-10 16:22:00,49.8,42.0,30.12,WNW,286,5.0,27.0,75,0.00,,,0.00,69,weatherlink.com 1.10,2013-01-11 00:22:00,
2013-01-10 16:52:00,49.2,42.0,30.13,WNW,303,14.0,23.0,75,0.00,,,0.00,16,weatherlink.com 1.10,2013-01-11 00:52:00,
2013-01-10 17:07:00,48.5,42.0,30.13,NNW,333,18.0,25.0,78,0.00,,,0.00,7,weatherlink.com 1.10,2013-01-11 01:07:00,
2013-01-10 17:23:00,48.1,41.0,30.14,WNW,283,10.0,23.0,77,0.00,,,0.00,0,weatherlink.com 1.10,2013-01-11 01:23:00,
2013-01-10 17:38:00,48.1,41.0,30.15,NW,311,10.0,26.0,77,0.00,,,0.00,0,weatherlink.com 1.10,2013-01-11 01:38:00,
2013-01-10 18:08:00,47.4,40.0,30.16,NW,316,9.0,23.0,75,0.00,,,0.00,0,weatherlink.com 1.10,2013-01-11 02:08:00,
2013-01-10 18:23:00,46.8,39.0,30.16,WNW,303,13.0,20.0,73,0.00,,,0.00,0,weatherlink.com 1.10,2013-01-11 02:23:00,
2013-01-10 18:38:00,46.7,38.0,30.16,WNW,286,6.0,21.0,72,0.00,,,0.00,0,weatherlink.com 1.10,2013-01-11 02:38:00,
2013-01-10 18:53:00,46.8,38.0,30.17,North,355,10.0,24.0,71,0.00,,,0.00,0,weatherlink.com 1.10,2013-01-11 02:53:00,
2013-01-10 19:08:00,46.5,38.0,30.17,NNW,327,6.0,23.0,73,0.00,,,0.00,0,weatherlink.com 1.10,2013-01-11 03:08:00,
2013-01-10 19:22:00,45.9,39.0,30.17,NNW,337,5.0,12.0,76,0.00,,,0.00,0,weatherlink.com 1.10,2013-01-11 03:22:00,
2013-01-10 19:39:00,46.0,39.0,30.18,WNW,294,10.0,18.0,76,0.00,,,0.00,0,weatherlink.com 1.10,2013-01-11 03:39:00,
2013-01-10 19:54:00,45.5,39.0,30.19,NW,309,4.0,10.0,77,0.00,,,0.00,0,weatherlink.com 1.10,2013-01-11 03:54:00,
2013-01-10 20:09:00,45.1,38.0,30.19,NW,317,8.0,12.0,76,0.00,,,0.00,0,weatherlink.com 1.10,2013-01-11 04:09:00,
2013-01-10 20:23:00,44.9,38.0,30.20,West,279,5.0,11.0,77,0.00,,,0.00,0,weatherlink.com 1.10,2013-01-11 04:23:00,
2013-01-10 20:40:00,44.9,38.0,30.20,North,5,11.0,13.0,77,0.00,,,0.00,0,weatherlink.com 1.10,2013-01-11 04:40:00,
2013-01-10 20:54:00,45.0,39.0,30.20,NW,304,5.0,15.0,78,0.00,,,0.00,0,weatherlink.com 1.10,2013-01-11 04:54:00,
2013-01-10 21:09:00,45.0,38.0,30.20,NNW,342,8.0,14.0,77,0.00,,,0.00,0,weatherlink.com 1.10,2013-01-11 05:09:00,
2013-01-10 21:24:00,45.1,38.0,30.21,North,9,5.0,20.0,76,0.00,,,0.00,0,weatherlink.com 1.10,2013-01-11 05:24:00,
2013-01-10 21:38:00,44.5,37.0,30.21,NNW,329,5.0,13.0,76,0.00,,,0.00,0,weatherlink.com 1.10,2013-01-11 05:38:00,
2013-01-10 21:55:00,44.3,37.0,30.21,NNE,22,7.0,11.0,75,0.00,,,0.00,0,weatherlink.com 1.10,2013-01-11 05:55:00,
2013-01-10 22:10:00,43.6,37.0,30.22,North,11,6.0,10.0,76,0.00,,,0.00,0,weatherlink.com 1.10,2013-01-11 06:10:00,
2013-01-10 22:25:00,43.6,37.0,30.22,North,10,7.0,12.0,76,0.00,,,0.00,0,weatherlink.com 1.10,2013-01-11 06:25:00,
2013-01-10 22:39:00,44.1,37.0,30.22,NNW,344,2.0,12.0,75,0.00,,,0.00,0,weatherlink.com 1.10,2013-01-11 06:39:00,
2013-01-10 22:55:00,44.2,36.0,30.22,NW,315,7.0,10.0,74,0.00,,,0.00,0,weatherlink.com 1.10,2013-01-11 06:55:00,
2013-01-10 23:09:00,44.1,36.0,30.23,North,5,10.0,13.0,74,0.00,,,0.00,0,weatherlink.com 1.10,2013-01-11 07:09:00,
2013-01-10 23:25:00,44.3,36.0,30.22,NNE,20,6.0,13.0,73,0.00,,,0.00,0,weatherlink.com 1.10,2013-01-11 07:25:00,
2013-01-10 23:40:00,44.5,37.0,30.22,NNW,347,10.0,14.0,74,0.00,,,0.00,0,weatherlink.com 1.10,2013-01-11 07:40:00,
2013-01-10 23:55:00,44.9,38.0,30.22,NNW,338,3.0,15.0,76,0.00,,,0.00,0,weatherlink.com 1.10,2013-01-11 07:55:00,